Temp
-6 -6 -7 -7 -7 -7 -8 -7 -7 -7 -7 -8 -8 -8 -8 -7 -7 -7 -8 -8 -8 -8 -7 -7 -7 -7 -7 -7 -6 -7 -7 -7 -7
-6 -6 -6 -7 -7 -8 -8 -8 -7 -7 -7 -8 -8 -8 -7 -7 -7 -7 -7 -7 -8 -8 -7 -7 -7 -7 -7 -7 -6 -7 -7 -7 -7
-7 -7 -6 -6 -7 -7 -8 -8 -8 -8 -7 -7 -7 -7 -8 -7 -7 -7 -7 -7 -7 -7 -7 -7 -6 -7 -7 -7 -7 -7 -7 -6 -6
-7 -7 -6 -6 -7 -7 -8 -8 -8 -7 -8 -8 -7 -7 -7 -7 -7 -7 -6 -7 -7 -7 -7 -7 -7 -6 -7 -7 -7 -7 -7 -7 -6
-8 -7 -7 -7 -7 -6 -7 -7 -8 -7 -8 -7 -8 -8 -8 -7 -7 -7 -6 -7 -7 -7 -8 -7 -7 -7 -7 -7 -7 -7 -7 -7 -7
-8 -8 -7 -7 -7 -7 -7 -7 -7 -7 -7 -7 -7 -7 -7 -7 -7 -6 -7 -7 -7 -7 -7 -7 -7 -8 -7 -8 -7 -7 -7 -7 -7
-8 -7 -8 -7 -7 -7 -7 -7 -7 -7 -7 -7 -7 -7 -6 -7 -6 -7 -7 -6 -7 -7 -7 -7 -7 -8 -7 -7 -7 -7 -6 -7 -7
-8 -8 -8 -8 -8 -7 -7 -7 -7 -7 -7 -7 -7 -7 -7 -7 -7 -6 -7 -6 -6 -7 -6 -8 -7 -7 -7 -7 -7 -7 -7 -7 -7
-9 -9 -9 -9 -8 -7 -7 -7 -7 -7 -6 -6 -6 -6 -6 -7 -7 -7 -7 -7 -6 -7 -6 -6 -7 -7 -7 -7 -7 -7 -7 -7 -7
-10 -10 -9 -9 -9 -8 -7 -7 -7 -7 -7 -7 -7 -7 -7 -7 -7 -7 -7 -6 -7 -7 -7 -6 -6 -7 -7 -7 -7 -8 -7 -7 -7
-9 -10 -9 -8 -8 -8 -8 -8 -8 -8 -7 -7 -7 -7 -7 -7 -7 -7 -6 -6 -7 -7 -7 -7 -7 -7 -7 -7 -7 -7 -7 -7 -7
-9 -10 -10 -8 -8 -8 -8 -8 -8 -8 -8 -7 -7 -7 -7 -7 -7 -7 -7 -7 -8 -7 -7 -7 -7 -8 -8 -7 -7 -7 -7 -7 -7
-10 -10 -10 -9 -8 -8 -8 -8 -8 -8 -8 -8 -8 -7 -7 -7 -8 -7 -7 -7 -7 -7 -7 -7 -8 -7 -7 -7 -8 -8 -7 -7 -7
-10 -10 -10 -10 -10 -8 -9 -9 -8 -8 -8 -7 -8 -8 -7 -7 -7 -8 -8 -8 -8 -7 -7 -7 -8 -7 -7 -8 -8 -8 -8 -7 -7
-11 -11 -11 -11 -10 -9 -9 -9 -9 -8 -8 -8 -8 -8 -7 -8 -8 -8 -8 -8 -8 -8 -8 -8 -8 -6 -7 -7 -7 -7 -7 -7 -7
-11 -12 -11 -11 -10 -10 -10 -9 -9 -9 -9 -8 -8 -8 -8 -8 -8 -8 -8 -8 -8 -8 -8 -8 -8 -8 -8 -7 -8 -8 -7 -7 -7
-11 -12 -12 -11 -11 -10 -10 -9 -9 -9 -9 -9 -9 -9 -8 -8 -8 -8 -8 -8 -8 -8 -8 -8 -8 -8 -8 -8 -8 -8 -7 -8 -7
-10 -11 -11 -12 -11 -11 -10 -10 -10 -10 -9 -9 -10 -9 -9 -8 -8 -9 -9 -9 -9 -9 -8 -8 -8 -9 -9 -9 -8 -8 -8 -8 -7
-11 -11 -12 -11 -11 -11 -11 -10 -10 -10 -10 -10 -10 -10 -10 -9 -9 -9 -9 -9 -9 -9 -9 -9 -9 -8 -8 -8 -8 -8 -8 -8 -8
-11 -11 -11 -11 -11 -11 -11 -10 -10 -10 -10 -10 -10 -10 -10 -10 -9 -9 -9 -9 -8 -8 -8 -8 -8 -8 -8 -8 -8 -8 -8 -8 -8
Height
5862 5861 5863 5862 5862 5863 5865 5868 5871 5872 5873 5874 5875 5878 5881 5882 5885 5885 5887 5891 5893 5896 5897 5900 5905 5909 5910 5913 5913 5913 5914 5916 5917
5859 5860 5860 5859 5860 5861 5864 5867 5867 5868 5869 5871 5873 5876 5879 5882 5885 5884 5886 5886 5889 5893 5896 5899 5900 5903 5905 5908 5909 5911 5910 5912 5914
5860 5858 5858 5858 5859 5860 5861 5863 5865 5866 5867 5870 5872 5875 5878 5881 5885 5886 5885 5887 5886 5889 5894 5896 5898 5898 5899 5902 5904 5906 5908 5908 5910
5860 5859 5858 5858 5858 5859 5860 5860 5860 5861 5864 5867 5871 5874 5876 5878 5880 5885 5888 5889 5888 5884 5889 5893 5895 5896 5899 5899 5900 5901 5904 5906 5906
5858 5856 5856 5858 5858 5856 5857 5857 5857 5860 5862 5865 5868 5872 5873 5874 5876 5880 5884 5887 5886 5886 5883 5888 5892 5896 5898 5898 5897 5898 5899 5901 5903
5853 5855 5856 5856 5856 5855 5855 5855 5856 5858 5860 5862 5864 5866 5868 5869 5872 5875 5879 5882 5883 5883 5884 5884 5886 5889 5892 5894 5894 5893 5895 5896 5898
5850 5851 5852 5855 5856 5855 5854 5855 5855 5857 5857 5859 5861 5860 5862 5864 5865 5871 5873 5876 5878 5879 5880 5884 5885 5886 5887 5891 5893 5893 5894 5894 5895
5849 5849 5850 5853 5854 5853 5852 5853 5853 5852 5852 5853 5855 5856 5855 5853 5851 5861 5867 5869 5872 5874 5876 5877 5880 5882 5883 5885 5888 5891 5891 5891 5892
5843 5845 5845 5849 5851 5851 5849 5848 5848 5848 5849 5850 5851 5852 5850 5846 5848 5854 5860 5862 5865 5870 5868 5870 5872 5876 5878 5881 5882 5884 5885 5886 5887
5840 5841 5842 5844 5847 5848 5845 5843 5843 5844 5844 5844 5845 5846 5845 5845 5846 5850 5853 5855 5857 5860 5864 5863 5866 5868 5870 5873 5875 5876 5878 5880 5882
5838 5838 5839 5839 5841 5842 5841 5840 5840 5839 5839 5839 5838 5839 5841 5842 5842 5842 5845 5846 5846 5851 5856 5857 5859 5863 5864 5865 5868 5869 5871 5873 5875
5833 5833 5834 5834 5835 5836 5836 5835 5835 5836 5837 5837 5835 5834 5835 5836 5837 5838 5839 5839 5841 5845 5848 5849 5853 5855 5856 5859 5861 5862 5863 5864 5868
5828 5828 5828 5828 5828 5829 5831 5831 5830 5830 5831 5832 5831 5830 5829 5829 5830 5831 5832 5833 5834 5834 5838 5839 5841 5844 5847 5849 5851 5853 5857 5857 5859
5821 5821 5820 5821 5822 5822 5823 5826 5826 5825 5825 5825 5825 5827 5827 5826 5824 5824 5826 5827 5828 5829 5830 5832 5834 5837 5836 5837 5839 5841 5845 5847 5849
5813 5812 5811 5813 5816 5818 5818 5819 5821 5822 5820 5820 5820 5819 5820 5821 5822 5823 5821 5822 5823 5823 5824 5826 5828 5824 5823 5826 5830 5833 5835 5837 5840
5804 5804 5805 5808 5810 5813 5813 5814 5814 5815 5815 5814 5814 5814 5813 5813 5814 5815 5816 5818 5819 5818 5820 5821 5821 5822 5821 5819 5824 5826 5827 5827 5829
5797 5799 5800 5802 5803 5805 5807 5808 5807 5807 5807 5807 5807 5808 5808 5807 5807 5808 5809 5810 5811 5812 5812 5812 5813 5814 5813 5814 5815 5817 5819 5820 5819
5789 5792 5793 5795 5798 5800 5800 5801 5800 5799 5799 5799 5800 5801 5802 5802 5802 5803 5805 5805 5806 5806 5806 5806 5806 5805 5805 5806 5806 5807 5808 5809 5809
5781 5784 5787 5789 5791 5793 5794 5794 5793 5793 5793 5792 5792 5794 5795 5795 5795 5796 5797 5798 5799 5800 5800 5800 5800 5800 5799 5799 5798 5798 5799 5799 5799
5764 5764 5775 5780 5783 5786 5787 5787 5787 5786 5787 5786 5785 5787 5788 5789 5789 5790 5791 5792 5793 5793 5793 5791 5791 5791 5790 5790 5789 5789 5788 5788 5787
Wind_Speed
6 7 13 11 14 10 13 22 21 15 12 12 13 16 19 19 18 21 20 19 18 21 21 20 19 17 15 13 11 11 9 8 7
2 5 11 13 15 16 13 24 22 20 18 16 15 16 19 21 22 23 24 23 21 21 22 23 20 18 17 18 16 15 14 12 11
5 4 9 11 14 12 10 12 12 11 27 22 18 16 16 19 23 25 26 24 24 25 26 25 23 21 22 19 16 14 14 15 14
6 7 7 7 8 8 9 9 7 9 23 21 20 19 17 18 20 22 24 24 22 25 26 26 25 24 24 23 21 18 16 16 17
4 2 3 4 5 6 4 6 11 9 15 23 20 20 20 19 20 21 24 24 27 27 27 27 26 24 24 19 23 19 17 17 17
7 2 4 3 3 1 3 5 8 10 14 17 22 23 25 23 25 24 25 27 27 26 27 27 27 25 27 25 22 18 19 18 17
10 3 3 3 2 6 4 3 5 10 14 16 18 16 18 27 28 31 27 28 27 27 26 26 25 28 27 23 21 21 21 19 19
11 4 5 8 8 6 9 6 7 7 9 12 14 17 21 21 43 43 31 27 24 28 30 25 27 26 27 26 25 26 24 22 21
9 7 5 10 14 11 8 7 5 6 8 10 12 14 12 12 26 28 30 29 28 28 33 31 30 30 31 32 28 28 27 24 24
11 13 18 15 18 15 10 9 8 8 9 11 11 9 10 12 19 31 39 40 33 35 36 33 31 31 31 31 31 28 28 27 27
19 18 20 24 20 13 9 9 10 11 11 13 13 13 10 11 18 19 26 28 42 40 39 34 35 34 33 33 33 32 31 32 32
20 20 22 25 21 15 9 9 9 11 12 12 13 15 14 13 12 17 16 22 26 38 42 38 37 37 37 36 36 37 36 36 34
20 19 21 21 18 15 12 11 11 12 12 13 15 15 15 15 15 13 15 18 22 22 39 40 42 43 43 41 41 38 37 35 34
21 19 17 17 17 17 15 14 11 14 15 15 17 16 15 16 18 17 16 16 17 20 22 28 32 40 44 47 48 46 41 39 36
19 17 19 17 21 18 17 17 15 15 16 17 18 20 19 18 17 19 19 18 19 19 20 24 32 45 45 37 30 40 39 39 39
18 22 21 22 21 18 19 21 21 20 21 20 20 20 21 21 20 19 18 21 22 21 22 26 28 26 25 27 32 34 39 40 40
26 26 26 22 22 21 21 23 23 21 20 22 22 21 22 21 22 21 21 19 22 23 25 25 27 27 26 27 28 29 37 45 43
29 26 27 26 23 22 21 21 23 23 21 22 23 23 22 22 22 23 23 22 22 22 23 25 27 28 28 29 29 30 32 34 33
40 32 32 24 19 21 19 20 21 21 19 19 21 23 22 23 23 23 25 26 26 26 27 27 28 30 31 32 32 32 33 34 35
46 49 23 21 19 17 18 21 23 27 23 19 18 20 22 23 23 24 25 26 28 29 31 32 32 32 32 32 34 34 35 35 36
Wind_Direction
246 175 201 216 212 212 218 190 200 220 215 218 207 210 214 215 208 203 197 203 194 189 183 189 194 200 196 208 218 231 224 232 245
340 231 229 229 215 220 226 210 220 221 212 218 221 215 221 223 221 211 209 200 202 207 205 205 201 206 211 211 214 219 220 228 227
313 255 236 227 225 245 252 209 236 249 222 228 219 215 221 229 231 228 213 202 202 206 210 210 211 209 218 215 215 218 222 219 208
267 231 226 225 242 242 229 234 253 262 214 222 226 228 218 228 231 230 236 221 212 197 207 215 215 215 218 217 215 213 216 220 212
276 240 216 189 197 237 215 236 249 252 229 218 224 244 234 229 228 227 230 230 226 221 209 213 219 219 224 231 231 223 221 214 218
307 165 166 97 59 278 253 235 234 227 233 241 245 244 239 230 232 224 225 228 230 227 228 219 213 212 220 231 229 220 229 227 222
289 272 351 341 322 278 274 281 259 239 234 239 249 238 243 229 242 240 226 228 228 232 230 236 223 217 228 234 236 230 232 230 231
262 259 356 344 342 288 267 250 259 265 268 253 252 245 248 257 250 229 225 226 228 236 241 233 237 236 233 236 237 240 238 232 235
269 270 294 341 335 315 293 287 281 289 284 275 264 257 254 247 208 211 224 221 238 241 238 234 234 237 238 236 235 240 243 242 243
268 280 285 287 313 308 305 306 296 294 299 293 286 270 255 239 212 225 232 240 240 227 233 235 232 232 233 235 238 242 248 250 248
261 286 289 282 284 287 293 298 298 303 306 306 302 292 269 251 237 248 237 252 241 225 232 231 233 234 237 237 238 240 241 245 246
279 278 272 267 268 280 281 282 288 292 296 297 295 290 281 274 260 242 246 241 225 234 237 235 236 234 240 240 242 241 240 237 242
255 265 263 258 264 276 278 274 280 287 291 294 297 299 289 284 271 265 252 242 246 239 237 251 234 235 235 241 238 241 247 243 241
249 252 273 261 265 264 273 274 279 291 292 289 289 290 285 280 278 271 265 257 251 250 253 254 239 244 248 238 237 234 236 244 244
253 276 288 276 263 262 270 278 283 286 290 287 283 287 286 280 271 261 261 262 260 252 249 249 252 256 263 252 256 243 243 245 249
258 273 285 285 276 273 276 282 288 292 288 280 279 278 280 281 277 273 260 254 252 255 254 251 255 258 264 264 258 260 262 251 247
248 258 273 270 271 274 278 281 285 287 289 278 270 272 272 274 275 273 270 265 261 258 257 259 260 263 262 261 261 260 259 259 265
246 246 245 258 265 271 275 282 287 288 286 283 273 269 264 264 265 267 268 266 263 261 261 261 264 267 268 267 267 268 267 267 269
233 238 245 259 253 264 274 285 290 291 300 284 271 265 263 260 261 263 266 267 265 262 262 263 265 266 266 267 268 269 269 268 268
242 218 219 222 232 248 273 290 298 297 295 289 271 264 264 263 261 261 261 264 266 267 268 271 270 271 271 271 270 272 273 273 272